Time,TemperatureF,DewpointF,PressureIn,WindDirection,WindDirectionDegrees,WindSpeedMPH,WindSpeedGustMPH,Humidity,HourlyPrecipIn,Conditions,Clouds,dailyrainin,SolarRadiationWatts/m^2,SoftwareType,DateUTC
2013-06-14 00:01:00,55.0,42.0,-100.00,North,354,4.0,9.0,62,0.00,,,0.00,0.000000,,2013-06-14 04:01:00,
2013-06-14 00:33:00,54.0,41.0,-100.00,NNW,345,5.0,11.0,61,0.00,,,0.00,0.000000,,2013-06-14 04:33:00,
2013-06-14 00:43:00,54.0,41.0,-100.00,NNW,345,5.0,11.0,61,0.00,,,0.00,0.000000,,2013-06-14 04:43:00,
2013-06-14 00:53:00,54.0,41.0,-100.00,NNW,345,5.0,11.0,61,0.00,,,0.00,0.000000,,2013-06-14 04:53:00,
2013-06-14 01:02:00,54.0,41.0,-100.00,NNW,345,5.0,11.0,61,0.00,,,0.00,0.000000,,2013-06-14 05:02:00,
2013-06-14 01:11:00,54.0,41.0,-100.00,NNW,345,5.0,11.0,61,0.00,,,0.00,0.000000,,2013-06-14 05:11:00,
2013-06-14 01:12:00,54.0,40.0,-100.00,NNW,346,4.0,10.0,59,0.00,,,0.00,0.000000,,2013-06-14 05:12:00,
2013-06-14 01:34:00,54.0,40.0,-100.00,NNW,346,4.0,10.0,59,0.00,,,0.00,0.000000,,2013-06-14 05:34:00,
2013-06-14 01:43:00,54.0,40.0,-100.00,NNW,346,4.0,10.0,59,0.00,,,0.00,0.000000,,2013-06-14 05:43:00,
2013-06-14 01:52:00,54.0,40.0,-100.00,NNW,346,4.0,10.0,59,0.00,,,0.00,0.000000,,2013-06-14 05:52:00,
2013-06-14 02:02:00,54.0,40.0,-100.00,NNW,346,4.0,10.0,59,0.00,,,0.00,0.000000,,2013-06-14 06:02:00,
2013-06-14 02:12:00,53.0,40.0,-100.00,North,352,3.0,10.0,61,0.00,,,0.00,0.000000,,2013-06-14 06:12:00,
2013-06-14 02:33:00,53.0,40.0,-100.00,North,352,3.0,10.0,61,0.00,,,0.00,0.000000,,2013-06-14 06:33:00,
2013-06-14 02:43:00,53.0,40.0,-100.00,North,352,3.0,10.0,61,0.00,,,0.00,0.000000,,2013-06-14 06:43:00,
2013-06-14 02:52:00,53.0,40.0,-100.00,North,352,3.0,10.0,61,0.00,,,0.00,0.000000,,2013-06-14 06:52:00,
2013-06-14 03:02:00,53.0,40.0,-100.00,North,352,3.0,10.0,61,0.00,,,0.00,0.000000,,2013-06-14 07:02:00,
2013-06-14 03:12:00,51.0,39.0,-100.00,NE,38,3.0,10.0,64,0.00,,,0.00,0.000000,,2013-06-14 07:12:00,
2013-06-14 03:33:00,51.0,39.0,-100.00,NE,38,3.0,10.0,64,0.00,,,0.00,0.000000,,2013-06-14 07:33:00,
2013-06-14 03:43:00,51.0,39.0,-100.00,NE,38,3.0,10.0,64,0.00,,,0.00,0.000000,,2013-06-14 07:43:00,
2013-06-14 03:53:00,51.0,39.0,-100.00,NE,38,3.0,10.0,64,0.00,,,0.00,0.000000,,2013-06-14 07:53:00,
2013-06-14 04:02:00,51.0,39.0,-100.00,NE,38,3.0,10.0,64,0.00,,,0.00,0.000000,,2013-06-14 08:02:00,
2013-06-14 04:12:00,48.0,39.0,-100.00,North,3,3.0,7.0,72,0.00,,,0.00,0.000000,,2013-06-14 08:12:00,
2013-06-14 04:33:00,48.0,39.0,-100.00,North,3,3.0,7.0,72,0.00,,,0.00,0.000000,,2013-06-14 08:33:00,
2013-06-14 04:43:00,48.0,39.0,-100.00,North,3,3.0,7.0,72,0.00,,,0.00,0.000000,,2013-06-14 08:43:00,
2013-06-14 04:53:00,48.0,39.0,-100.00,North,3,3.0,7.0,72,0.00,,,0.00,0.000000,,2013-06-14 08:53:00,
2013-06-14 05:02:00,48.0,39.0,-100.00,North,3,3.0,7.0,72,0.00,,,0.00,0.000000,,2013-06-14 09:02:00,
2013-06-14 05:33:00,46.0,39.0,-100.00,NW,318,2.0,6.0,75,0.00,,,0.00,0.000000,,2013-06-14 09:33:00,
2013-06-14 05:43:00,46.0,39.0,-100.00,NW,318,2.0,6.0,75,0.00,,,0.00,0.000000,,2013-06-14 09:43:00,
2013-06-14 05:53:00,46.0,39.0,-100.00,NW,318,2.0,6.0,75,0.00,,,0.00,0.000000,,2013-06-14 09:53:00,
2013-06-14 06:01:00,46.0,39.0,-100.00,NW,318,2.0,6.0,75,0.00,,,0.00,0.000000,,2013-06-14 10:01:00,
2013-06-14 06:11:00,46.0,39.0,-100.00,NW,318,2.0,6.0,75,0.00,,,0.00,0.000000,,2013-06-14 10:11:00,
2013-06-14 06:34:00,41.0,37.0,-100.00,SSW,197,0.0,3.0,87,0.00,,,0.00,2.000000,,2013-06-14 10:34:00,
2013-06-14 06:44:00,41.0,37.0,-100.00,SSW,197,0.0,3.0,87,0.00,,,0.00,2.000000,,2013-06-14 10:44:00,
2013-06-14 06:53:00,41.0,37.0,-100.00,SSW,197,0.0,3.0,87,0.00,,,0.00,2.000000,,2013-06-14 10:53:00,
2013-06-14 07:02:00,41.0,37.0,-100.00,SSW,197,0.0,3.0,87,0.00,,,0.00,2.000000,,2013-06-14 11:02:00,
2013-06-14 07:11:00,41.0,37.0,-100.00,SSW,197,0.0,3.0,87,0.00,,,0.00,2.000000,,2013-06-14 11:11:00,
2013-06-14 07:12:00,43.0,40.0,-100.00,SW,234,0.0,2.0,89,0.00,,,0.00,48.000000,,2013-06-14 11:12:00,
2013-06-14 07:33:00,43.0,40.0,-100.00,SW,234,0.0,2.0,89,0.00,,,0.00,48.000000,,2013-06-14 11:33:00,
2013-06-14 07:43:00,43.0,40.0,-100.00,SW,234,0.0,2.0,89,0.00,,,0.00,48.000000,,2013-06-14 11:43:00,
2013-06-14 07:52:00,43.0,40.0,-100.00,SW,234,0.0,2.0,89,0.00,,,0.00,48.000000,,2013-06-14 11:52:00,
2013-06-14 08:02:00,43.0,40.0,-100.00,SW,234,0.0,2.0,89,0.00,,,0.00,48.000000,,2013-06-14 12:02:00,
2013-06-14 08:33:00,53.0,38.0,-100.00,NNW,348,2.0,4.0,56,0.00,,,-99.99,245.000000,,2013-06-14 12:33:00,
2013-06-14 08:43:00,53.0,38.0,-100.00,NNW,348,2.0,4.0,56,0.00,,,-99.99,245.000000,,2013-06-14 12:43:00,
2013-06-14 08:52:00,53.0,38.0,-100.00,NNW,348,2.0,4.0,56,0.00,,,-99.99,245.000000,,2013-06-14 12:52:00,
2013-06-14 09:02:00,53.0,38.0,-100.00,NNW,348,2.0,4.0,56,0.00,,,-99.99,245.000000,,2013-06-14 13:02:00,
2013-06-14 09:11:00,53.0,38.0,-100.00,NNW,348,2.0,4.0,56,0.00,,,-99.99,245.000000,,2013-06-14 13:11:00,
2013-06-14 09:33:00,58.0,40.0,-100.00,NE,43,2.0,5.0,51,0.00,,,0.00,438.000000,,2013-06-14 13:33:00,
2013-06-14 09:43:00,58.0,40.0,-100.00,NE,43,2.0,5.0,51,0.00,,,0.00,438.000000,,2013-06-14 13:43:00,
2013-06-14 09:53:00,58.0,40.0,-100.00,NE,43,2.0,5.0,51,0.00,,,0.00,438.000000,,2013-06-14 13:53:00,
2013-06-14 10:02:00,58.0,40.0,-100.00,NE,43,2.0,5.0,51,0.00,,,0.00,438.000000,,2013-06-14 14:02:00,
2013-06-14 10:11:00,58.0,40.0,-100.00,NE,43,2.0,5.0,51,0.00,,,0.00,438.000000,,2013-06-14 14:11:00,
2013-06-14 10:34:00,62.0,39.0,-100.00,SSE,163,3.0,6.0,43,0.00,,,0.00,630.000000,,2013-06-14 14:34:00,
2013-06-14 10:43:00,62.0,39.0,-100.00,SSE,163,3.0,6.0,43,0.00,,,0.00,630.000000,,2013-06-14 14:43:00,
2013-06-14 10:52:00,62.0,39.0,-100.00,SSE,163,3.0,6.0,43,0.00,,,0.00,630.000000,,2013-06-14 14:52:00,
2013-06-14 11:01:00,62.0,39.0,-100.00,SSE,163,3.0,6.0,43,0.00,,,0.00,630.000000,,2013-06-14 15:01:00,
2013-06-14 11:11:00,62.0,39.0,-100.00,SSE,163,3.0,6.0,43,0.00,,,0.00,630.000000,,2013-06-14 15:11:00,
2013-06-14 11:33:00,66.0,38.0,-100.00,NNW,348,4.0,7.0,35,0.00,,,0.00,786.000000,,2013-06-14 15:33:00,
2013-06-14 11:44:00,66.0,38.0,-100.00,NNW,348,4.0,7.0,35,0.00,,,0.00,786.000000,,2013-06-14 15:44:00,
2013-06-14 11:53:00,66.0,38.0,-100.00,NNW,348,4.0,7.0,35,0.00,,,0.00,786.000000,,2013-06-14 15:53:00,
2013-06-14 12:01:00,66.0,38.0,-100.00,NNW,348,4.0,7.0,35,0.00,,,0.00,786.000000,,2013-06-14 16:01:00,
2013-06-14 12:11:00,66.0,38.0,-100.00,NNW,348,4.0,7.0,35,0.00,,,0.00,786.000000,,2013-06-14 16:11:00,
2013-06-14 12:33:00,69.0,36.0,-100.00,NNE,27,3.0,10.0,30,0.00,,,0.00,913.000000,,2013-06-14 16:33:00,
2013-06-14 12:43:00,69.0,36.0,-100.00,NNE,27,3.0,10.0,30,0.00,,,0.00,913.000000,,2013-06-14 16:43:00,
2013-06-14 12:53:00,69.0,36.0,-100.00,NNE,27,3.0,10.0,30,0.00,,,0.00,913.000000,,2013-06-14 16:53:00,
2013-06-14 13:02:00,69.0,36.0,-100.00,NNE,27,3.0,10.0,30,0.00,,,0.00,913.000000,,2013-06-14 17:02:00,
2013-06-14 13:11:00,69.0,36.0,-100.00,NNE,27,3.0,10.0,30,0.00,,,0.00,913.000000,,2013-06-14 17:11:00,
2013-06-14 13:34:00,69.0,34.0,-100.00,East,86,5.0,12.0,27,0.00,,,0.00,1010.000000,,2013-06-14 17:34:00,
2013-06-14 13:43:00,69.0,34.0,-100.00,East,86,5.0,12.0,27,0.00,,,0.00,1010.000000,,2013-06-14 17:43:00,
2013-06-14 13:53:00,69.0,34.0,-100.00,East,86,5.0,12.0,27,0.00,,,0.00,1010.000000,,2013-06-14 17:53:00,
2013-06-14 14:02:00,69.0,34.0,-100.00,East,86,5.0,12.0,27,0.00,,,0.00,1010.000000,,2013-06-14 18:02:00,
2013-06-14 14:11:00,69.0,34.0,-100.00,East,86,5.0,12.0,27,0.00,,,0.00,1010.000000,,2013-06-14 18:11:00,
2013-06-14 14:33:00,70.0,34.0,-100.00,East,100,4.0,12.0,26,0.00,,,0.00,1052.000000,,2013-06-14 18:33:00,
2013-06-14 14:43:00,70.0,34.0,-100.00,East,100,4.0,12.0,26,0.00,,,0.00,1052.000000,,2013-06-14 18:43:00,
2013-06-14 14:52:00,70.0,34.0,-100.00,East,100,4.0,12.0,26,0.00,,,0.00,1052.000000,,2013-06-14 18:52:00,
2013-06-14 15:01:00,70.0,34.0,-100.00,East,100,4.0,12.0,26,0.00,,,0.00,1052.000000,,2013-06-14 19:01:00,
2013-06-14 15:11:00,70.0,34.0,-100.00,East,100,4.0,12.0,26,0.00,,,0.00,1052.000000,,2013-06-14 19:11:00,
2013-06-14 15:33:00,71.0,32.0,-100.00,NNE,31,4.0,10.0,24,0.00,,,0.00,1035.000000,,2013-06-14 19:33:00,
2013-06-14 15:43:00,71.0,32.0,-100.00,NNE,31,4.0,10.0,24,0.00,,,0.00,1035.000000,,2013-06-14 19:43:00,
2013-06-14 15:53:00,71.0,32.0,-100.00,NNE,31,4.0,10.0,24,0.00,,,0.00,1035.000000,,2013-06-14 19:53:00,
2013-06-14 16:02:00,71.0,32.0,-100.00,NNE,31,4.0,10.0,24,0.00,,,0.00,1035.000000,,2013-06-14 20:02:00,
2013-06-14 16:11:00,71.0,32.0,-100.00,NNE,31,4.0,10.0,24,0.00,,,0.00,1035.000000,,2013-06-14 20:11:00,
2013-06-14 16:33:00,73.0,32.0,-100.00,NNE,17,3.0,9.0,22,0.00,,,0.00,959.000000,,2013-06-14 20:33:00,
2013-06-14 16:43:00,73.0,32.0,-100.00,NNE,17,3.0,9.0,22,0.00,,,0.00,959.000000,,2013-06-14 20:43:00,
2013-06-14 16:53:00,73.0,32.0,-100.00,NNE,17,3.0,9.0,22,0.00,,,0.00,959.000000,,2013-06-14 20:53:00,
2013-06-14 17:02:00,73.0,32.0,-100.00,NNE,17,3.0,9.0,22,0.00,,,0.00,959.000000,,2013-06-14 21:02:00,
2013-06-14 17:11:00,73.0,32.0,-100.00,NNE,17,3.0,9.0,22,0.00,,,0.00,959.000000,,2013-06-14 21:11:00,
2013-06-14 17:34:00,72.0,37.0,-100.00,East,88,4.0,12.0,28,0.00,,,0.00,835.000000,,2013-06-14 21:34:00,
2013-06-14 17:43:00,72.0,37.0,-100.00,East,88,4.0,12.0,28,0.00,,,0.00,835.000000,,2013-06-14 21:43:00,
2013-06-14 17:52:00,72.0,37.0,-100.00,East,88,4.0,12.0,28,0.00,,,0.00,835.000000,,2013-06-14 21:52:00,
2013-06-14 18:01:00,72.0,37.0,-100.00,East,88,4.0,12.0,28,0.00,,,0.00,835.000000,,2013-06-14 22:01:00,
2013-06-14 18:11:00,72.0,37.0,-100.00,East,88,4.0,12.0,28,0.00,,,0.00,835.000000,,2013-06-14 22:11:00,
2013-06-14 18:33:00,73.0,39.0,-100.00,NE,51,4.0,10.0,29,0.00,,,0.00,682.000000,,2013-06-14 22:33:00,
2013-06-14 18:43:00,73.0,39.0,-100.00,NE,51,4.0,10.0,29,0.00,,,0.00,682.000000,,2013-06-14 22:43:00,
2013-06-14 18:53:00,73.0,39.0,-100.00,NE,51,4.0,10.0,29,0.00,,,0.00,682.000000,,2013-06-14 22:53:00,
2013-06-14 19:02:00,73.0,39.0,-100.00,NE,51,4.0,10.0,29,0.00,,,0.00,682.000000,,2013-06-14 23:02:00,
2013-06-14 19:11:00,73.0,39.0,-100.00,NE,51,4.0,10.0,29,0.00,,,0.00,682.000000,,2013-06-14 23:11:00,
2013-06-14 19:33:00,70.0,40.0,-100.00,East,79,3.0,9.0,34,0.00,,,0.00,477.000000,,2013-06-14 23:33:00,
2013-06-14 19:43:00,70.0,40.0,-100.00,East,79,3.0,9.0,34,0.00,,,0.00,477.000000,,2013-06-14 23:43:00,
2013-06-14 19:52:00,70.0,40.0,-100.00,East,79,3.0,9.0,34,0.00,,,0.00,477.000000,,2013-06-14 23:52:00,
2013-06-14 20:01:00,70.0,40.0,-100.00,East,79,3.0,9.0,34,0.00,,,0.00,477.000000,,2013-06-15 00:01:00,
2013-06-14 20:11:00,70.0,40.0,-100.00,East,79,3.0,9.0,34,0.00,,,0.00,477.000000,,2013-06-15 00:11:00,
2013-06-14 21:33:00,57.0,35.0,-100.00,North,6,2.0,6.0,43,-99.99,,,0.00,39.000000,,2013-06-15 01:33:00,
2013-06-14 21:43:00,57.0,35.0,-100.00,North,6,2.0,6.0,43,-99.99,,,0.00,39.000000,,2013-06-15 01:43:00,
2013-06-14 21:54:00,57.0,35.0,-100.00,North,6,2.0,6.0,43,-99.99,,,0.00,39.000000,,2013-06-15 01:54:00,
2013-06-14 22:02:00,57.0,35.0,-100.00,North,6,2.0,6.0,43,-99.99,,,0.00,39.000000,,2013-06-15 02:02:00,
2013-06-14 22:11:00,57.0,35.0,-100.00,North,6,2.0,6.0,43,-99.99,,,0.00,39.000000,,2013-06-15 02:11:00,
2013-06-14 22:34:00,54.0,33.0,-100.00,NE,35,1.0,5.0,45,0.00,,,0.00,5.000000,,2013-06-15 02:34:00,
2013-06-14 22:43:00,54.0,33.0,-100.00,NE,35,1.0,5.0,45,0.00,,,0.00,5.000000,,2013-06-15 02:43:00,
2013-06-14 22:53:00,54.0,33.0,-100.00,NE,35,1.0,5.0,45,0.00,,,0.00,5.000000,,2013-06-15 02:53:00,
2013-06-14 23:01:00,54.0,33.0,-100.00,NE,35,1.0,5.0,45,0.00,,,0.00,5.000000,,2013-06-15 03:01:00,
2013-06-14 23:11:00,54.0,33.0,-100.00,NE,35,1.0,5.0,45,0.00,,,0.00,5.000000,,2013-06-15 03:11:00,
2013-06-14 23:12:00,52.0,35.0,-100.00,North,6,0.0,2.0,52,0.00,,,0.00,0.000000,,2013-06-15 03:12:00,
2013-06-14 23:33:00,52.0,35.0,-100.00,North,6,0.0,2.0,52,0.00,,,0.00,0.000000,,2013-06-15 03:33:00,
2013-06-14 23:44:00,52.0,35.0,-100.00,North,6,0.0,2.0,52,0.00,,,0.00,0.000000,,2013-06-15 03:44:00,
2013-06-14 23:53:00,52.0,35.0,-100.00,North,6,0.0,2.0,52,0.00,,,0.00,0.000000,,2013-06-15 03:53:00,